DELTA 1 DEB, 29010

Orbit data source: Space-Track

DELTA 1 DEB, 29010 is space debris in LEO originally from a launch on Sat, 06 Nov 1965 UTC launched from the Air Force Eastern Test Range (AFETR). Debris objects in space refer to the collection of defunct objects orbiting the Earth. Examples of debris include non-operational satellites, rocket bodies, and fragments generated from explosions, collisions, or faulty payload assembly.

Loading next visibility...
Identifier
29010, 1965-089H
Orbit
LEO
Last TLE update
3 months ago
Origin
Manufacturer
Unknown
Mission
Spacecraft
Bus & Motor
Unknown
Mass
Unknown
Launch date (UTC)
1965-11-06 (60 years ago)
Launch vehicle
Unknown
Launch site
Air Force Eastern Test Range (AFETR)
Object type
Payload
Rocket body
Debris
Shape & HBR
Unknown
Radar Cross Section
Small (<0.1 m²)

Expand to show TLE details & history

TLE from 3 months ago
0 DELTA 1 DEB
1 29010U 65089H   25103.47924407 -.00001662  00000-0 -89937-2 0  9993
2 29010  59.2705 359.8486 0663758 249.9756 292.0496 12.09188555473024
Epoch: 2025-04-13T11:30Z
TLE epoch observation values (Epoch: 2025-04-13T11:30:06.687Z)
Latitude
4.43968°
Longitude
162.78039°
Altitude
1,472.477 km
Speed
7.202 km/s
True Right ascension
11h 48m 51s
True Declination
4° 24' 56"
Sunlit
Object was in full shadow at epoch
Visualization orbit readout
Latitude
32.48614°
Longitude
-174.3924°
Altitude
1,649.821 km
Speed
7.048 km/s
Apparent Right ascension
11h 49m 52s
Apparent Declination
1° 13' 05"
Sunlit
Object is in full shadow
Visualization observer readout
Local Sidereal Time
21:41:33
Azimuth
316.517° NNW
Elevation
-39.501°
Doppler factor
1
Orbital elements
Apogee altitude
2,171.557 km
Perigee altitude
1,107.218 km
Semi-major axis
8,017.525 km
Eccentricity
0.06638
Inclination
59.2705°
RAAN
359.8486°
Arg. of periapsis
249.9756°
True anomaly
Unknown
Mean anomaly
292.0496°
Eccentric anomaly
Unknown
Mean motion
3.02331 °/min
Orbital period
119.07 mins
BSTAR
-0.0089937
Loading maneuver chart data...
Loading SW <> Apogee altitude chart data...
Loading historical data...
Loading historical data...
Loading historical data...
Loading historical data...
Loading historical data...
Loading historical data...
Loading historical data...

DELTA 1 DEB Visibility forecast

Observer location: undefined°, undefined°

Span
Click to sort rows by Start time (UTC) header in descending order
Start Az.
Max El. time (UTC)
Max El. Az.
Max El.
End time (UTC)
End Az.
23 mins2025-07-01 10:26:09.885Z317.138° NNW2025-07-01 10:38:09.885Z224.207° SW44.13°2025-07-01 10:49:09.885Z153.184° SSE
14 mins2025-07-01 12:34:09.885Z289.87° WNW2025-07-01 12:40:09.885Z257.862° W20.1°2025-07-01 12:48:09.885Z214.126° SW
11 mins2025-07-01 23:52:09.885Z139.176° SSE2025-07-01 23:56:09.885Z108.632° ESE19.84°2025-07-02 00:03:09.885Z64.127° ENE
19 mins2025-07-02 01:51:09.885Z215.463° SW2025-07-02 01:59:09.885Z89.71° E44.933°2025-07-02 02:10:09.885Z41.196° NE
18 mins2025-07-02 03:57:09.885Z274.401° WNW2025-07-02 04:05:09.885Z338.675° N32.132°2025-07-02 04:15:09.885Z38.98° NE
18 mins2025-07-02 06:05:09.885Z313.237° NW2025-07-02 06:13:09.885Z4.132° NNE26.41°2025-07-02 06:23:09.885Z59.861° ENE
22 mins2025-07-02 08:11:09.885Z324.206° NNW2025-07-02 08:21:09.885Z29.589° NE36.329°2025-07-02 08:33:09.885Z104.101° ESE
|